Time,TemperatureF,DewpointF,PressureIn,WindDirection,WindDirectionDegrees,WindSpeedMPH,WindSpeedGustMPH,Humidity,HourlyPrecipIn,Conditions,Clouds,dailyrainin,SoftwareType,DateUTC
2013-05-06 00:03:00,54.0,-99.9,30.00,WNW,302,5.0,7.0,-999,-99.99,,,-99.99,,2013-05-06 05:03:00,
2013-05-06 00:12:00,54.0,-99.9,30.00,NW,306,6.0,7.0,-999,-99.99,,,-99.99,,2013-05-06 05:12:00,
2013-05-06 00:22:00,54.0,-99.9,30.01,WNW,302,6.0,8.0,-999,-99.99,,,-99.99,,2013-05-06 05:22:00,
2013-05-06 00:32:00,54.0,-99.9,30.01,NW,304,7.0,8.0,-999,-99.99,,,-99.99,,2013-05-06 05:32:00,
2013-05-06 00:42:00,54.0,-99.9,30.00,NW,305,7.0,9.0,-999,-99.99,,,-99.99,,2013-05-06 05:42:00,
2013-05-06 00:52:00,53.0,-99.9,30.00,NW,306,7.0,8.0,-999,-99.99,,,-99.99,,2013-05-06 05:52:00,
2013-05-06 01:02:00,53.0,-99.9,30.00,NW,309,7.0,8.0,-999,-99.99,,,-99.99,,2013-05-06 06:02:00,
2013-05-06 01:12:00,53.0,-99.9,30.00,NW,308,7.0,9.0,-999,-99.99,,,-99.99,,2013-05-06 06:12:00,
2013-05-06 01:22:00,53.0,-99.9,30.00,NW,306,6.0,7.0,-999,-99.99,,,-99.99,,2013-05-06 06:22:00,
2013-05-06 01:32:00,53.0,-99.9,30.00,NW,312,7.0,8.0,-999,-99.99,,,-99.99,,2013-05-06 06:32:00,
2013-05-06 01:42:00,53.0,-99.9,29.99,NW,315,6.0,8.0,-999,-99.99,,,-99.99,,2013-05-06 06:42:00,
2013-05-06 01:52:00,53.0,-99.9,29.99,NW,315,5.0,7.0,-999,-99.99,,,-99.99,,2013-05-06 06:52:00,
2013-05-06 02:01:00,53.0,-99.9,29.99,NW,308,6.0,7.0,-999,-99.99,,,-99.99,,2013-05-06 07:01:00,
2013-05-06 02:11:00,53.0,-99.9,29.99,NW,313,6.0,9.0,-999,-99.99,,,-99.99,,2013-05-06 07:11:00,
2013-05-06 02:22:00,52.0,-99.9,29.99,NW,310,6.0,8.0,-999,-99.99,,,-99.99,,2013-05-06 07:22:00,
2013-05-06 02:32:00,52.0,-99.9,29.99,NW,306,6.0,7.0,-999,-99.99,,,-99.99,,2013-05-06 07:32:00,
2013-05-06 02:42:00,53.0,-99.9,29.98,WNW,300,5.0,7.0,-999,-99.99,,,-99.99,,2013-05-06 07:42:00,
2013-05-06 02:52:00,53.0,-99.9,29.98,North,-999,-999.0,-999.0,-999,-99.99,,,-99.99,,2013-05-06 07:52:00,
2013-05-06 03:02:00,52.0,-99.9,29.98,WNW,291,6.0,7.0,-999,-99.99,,,-99.99,,2013-05-06 08:02:00,
2013-05-06 03:12:00,52.0,-99.9,29.98,WNW,294,6.0,7.0,-999,-99.99,,,-99.99,,2013-05-06 08:12:00,
2013-05-06 03:22:00,52.0,-99.9,29.98,North,-999,-999.0,-999.0,-999,-99.99,,,-99.99,,2013-05-06 08:22:00,
2013-05-06 03:32:00,52.0,-99.9,29.98,WNW,291,5.0,7.0,-999,-99.99,,,-99.99,,2013-05-06 08:32:00,
2013-05-06 03:42:00,53.0,-99.9,29.98,WNW,295,5.0,6.0,-999,-99.99,,,-99.99,,2013-05-06 08:42:00,
2013-05-06 03:52:00,52.0,-99.9,29.98,NW,305,5.0,6.0,-999,-99.99,,,-99.99,,2013-05-06 08:52:00,
2013-05-06 04:02:00,52.0,-99.9,29.98,WNW,301,4.0,7.0,-999,-99.99,,,-99.99,,2013-05-06 09:02:00,
2013-05-06 04:11:00,53.0,-99.9,29.98,WNW,297,5.0,6.0,-999,-99.99,,,-99.99,,2013-05-06 09:11:00,
2013-05-06 04:22:00,53.0,-99.9,29.98,NW,305,4.0,6.0,-999,-99.99,,,-99.99,,2013-05-06 09:22:00,
2013-05-06 04:33:00,53.0,-99.9,29.97,WNW,295,4.0,5.0,-999,-99.99,,,-99.99,,2013-05-06 09:33:00,
2013-05-06 04:43:00,53.0,-99.9,29.97,WNW,293,4.0,5.0,-999,-99.99,,,-99.99,,2013-05-06 09:43:00,
2013-05-06 04:53:00,54.0,-99.9,29.97,North,-999,-999.0,-999.0,-999,-99.99,,,-99.99,,2013-05-06 09:53:00,
2013-05-06 05:03:00,54.0,-99.9,29.97,West,274,4.0,6.0,-999,-99.99,,,-99.99,,2013-05-06 10:03:00,
2013-05-06 05:12:00,54.0,-99.9,29.98,NW,321,7.0,8.0,-999,-99.99,,,-99.99,,2013-05-06 10:12:00,
2013-05-06 05:22:00,54.0,-99.9,29.98,North,-999,-999.0,-999.0,-999,-99.99,,,-99.99,,2013-05-06 10:22:00,
2013-05-06 05:33:00,53.0,-99.9,29.98,NW,316,5.0,6.0,-999,-99.99,,,-99.99,,2013-05-06 10:33:00,
2013-05-06 05:42:00,52.0,-99.9,29.98,WNW,300,8.0,13.0,-999,-99.99,,,-99.99,,2013-05-06 10:42:00,
2013-05-06 05:52:00,54.0,-99.9,29.98,North,-999,-999.0,-999.0,-999,-99.99,,,-99.99,,2013-05-06 10:52:00,
2013-05-06 06:02:00,54.0,-99.9,29.98,WNW,292,7.0,10.0,-999,-99.99,,,-99.99,,2013-05-06 11:02:00,
2013-05-06 06:12:00,54.0,-99.9,29.98,WNW,290,7.0,8.0,-999,-99.99,,,-99.99,,2013-05-06 11:12:00,
2013-05-06 06:22:00,54.0,-99.9,29.99,WNW,289,6.0,9.0,-999,-99.99,,,-99.99,,2013-05-06 11:22:00,
2013-05-06 06:32:00,54.0,-99.9,29.99,WNW,289,6.0,7.0,-999,-99.99,,,-99.99,,2013-05-06 11:32:00,
2013-05-06 06:42:00,56.0,-99.9,29.99,North,-999,-999.0,-999.0,-999,-99.99,,,-99.99,,2013-05-06 11:42:00,
2013-05-06 06:52:00,56.0,-99.9,29.99,North,-999,-999.0,-999.0,-999,-99.99,,,-99.99,,2013-05-06 11:52:00,
2013-05-06 07:02:00,57.0,-99.9,29.99,WNW,282,9.0,12.0,-999,-99.99,,,-99.99,,2013-05-06 12:02:00,
2013-05-06 07:12:00,57.0,-99.9,30.00,West,270,7.0,10.0,-999,-99.99,,,-99.99,,2013-05-06 12:12:00,
2013-05-06 07:22:00,58.0,-99.9,30.00,North,-999,-999.0,-999.0,-999,-99.99,,,-99.99,,2013-05-06 12:22:00,
2013-05-06 07:32:00,58.0,-99.9,29.99,West,272,9.0,13.0,-999,-99.99,,,-99.99,,2013-05-06 12:32:00,
2013-05-06 07:42:00,59.0,-99.9,30.00,West,266,9.0,14.0,-999,-99.99,,,-99.99,,2013-05-06 12:42:00,
2013-05-06 07:52:00,59.0,-99.9,30.00,WNW,303,9.0,13.0,-999,-99.99,,,-99.99,,2013-05-06 12:52:00,
2013-05-06 08:01:00,59.0,-99.9,30.01,WNW,286,8.0,11.0,-999,-99.99,,,-99.99,,2013-05-06 13:01:00,
2013-05-06 08:11:00,59.0,-99.9,30.00,WNW,289,9.0,13.0,-999,-99.99,,,-99.99,,2013-05-06 13:11:00,
2013-05-06 08:22:00,59.0,-99.9,30.01,North,-999,-999.0,-999.0,-999,-99.99,,,-99.99,,2013-05-06 13:22:00,
2013-05-06 08:32:00,59.0,-99.9,30.01,WNW,289,9.0,13.0,-999,-99.99,,,-99.99,,2013-05-06 13:32:00,
2013-05-06 08:42:00,60.0,-99.9,30.00,West,273,13.0,18.0,-999,-99.99,,,-99.99,,2013-05-06 13:42:00,
2013-05-06 08:52:00,60.0,-99.9,30.00,North,-999,-999.0,-999.0,-999,-99.99,,,-99.99,,2013-05-06 13:52:00,
2013-05-06 09:02:00,61.0,-99.9,30.01,West,279,13.0,18.0,-999,-99.99,,,-99.99,,2013-05-06 14:02:00,
2013-05-06 09:11:00,61.0,-99.9,30.01,West,280,14.0,19.0,-999,-99.99,,,-99.99,,2013-05-06 14:11:00,
2013-05-06 09:21:00,62.0,-99.9,30.01,West,276,12.0,15.0,-999,-99.99,,,-99.99,,2013-05-06 14:21:00,
2013-05-06 09:32:00,62.0,-99.9,30.01,West,280,13.0,17.0,-999,-99.99,,,-99.99,,2013-05-06 14:32:00,
2013-05-06 09:42:00,63.0,-99.9,30.01,West,275,14.0,20.0,-999,-99.99,,,-99.99,,2013-05-06 14:42:00,
2013-05-06 09:52:00,64.0,-99.9,30.01,West,269,13.0,18.0,-999,-99.99,,,-99.99,,2013-05-06 14:52:00,
2013-05-06 10:01:00,64.0,-99.9,30.01,West,272,13.0,19.0,-999,-99.99,,,-99.99,,2013-05-06 15:01:00,
2013-05-06 10:11:00,64.0,-99.9,30.01,West,272,14.0,21.0,-999,-99.99,,,-99.99,,2013-05-06 15:11:00,
2013-05-06 10:22:00,65.0,-99.9,30.01,West,272,14.0,20.0,-999,-99.99,,,-99.99,,2013-05-06 15:22:00,
2013-05-06 10:33:00,65.0,-99.9,30.01,West,262,12.0,20.0,-999,-99.99,,,-99.99,,2013-05-06 15:33:00,
2013-05-06 10:43:00,65.0,-99.9,30.01,North,-999,-999.0,-999.0,-999,-99.99,,,-99.99,,2013-05-06 15:43:00,
2013-05-06 10:53:00,65.0,-99.9,30.01,North,-999,-999.0,-999.0,-999,-99.99,,,-99.99,,2013-05-06 15:53:00,
2013-05-06 11:03:00,65.0,-99.9,30.01,WSW,256,12.0,20.0,-999,-99.99,,,-99.99,,2013-05-06 16:03:00,
2013-05-06 11:13:00,65.0,-99.9,30.01,WSW,255,13.0,19.0,-999,-99.99,,,-99.99,,2013-05-06 16:13:00,
2013-05-06 11:23:00,65.0,-99.9,30.01,WSW,256,13.0,18.0,-999,-99.99,,,-99.99,,2013-05-06 16:23:00,
2013-05-06 11:33:00,66.0,-99.9,30.01,WSW,254,13.0,19.0,-999,-99.99,,,-99.99,,2013-05-06 16:33:00,
2013-05-06 11:42:00,66.0,-99.9,30.01,WSW,251,12.0,17.0,-999,-99.99,,,-99.99,,2013-05-06 16:42:00,
2013-05-06 11:52:00,66.0,-99.9,30.01,North,-999,-999.0,-999.0,-999,-99.99,,,-99.99,,2013-05-06 16:52:00,
2013-05-06 12:03:00,65.0,-99.9,30.00,WSW,240,13.0,20.0,-999,-99.99,,,-99.99,,2013-05-06 17:03:00,
2013-05-06 12:12:00,66.0,-99.9,30.00,WSW,239,12.0,18.0,-999,-99.99,,,-99.99,,2013-05-06 17:12:00,
2013-05-06 12:23:00,66.0,-99.9,30.00,North,-999,-999.0,-999.0,-999,-99.99,,,-99.99,,2013-05-06 17:23:00,
2013-05-06 12:32:00,66.0,-99.9,29.99,SW,232,12.0,17.0,-999,-99.99,,,-99.99,,2013-05-06 17:32:00,
2013-05-06 12:42:00,67.0,-99.9,29.99,SW,231,13.0,19.0,-999,-99.99,,,-99.99,,2013-05-06 17:42:00,
2013-05-06 12:52:00,67.0,-99.9,29.99,North,-999,-999.0,-999.0,-999,-99.99,,,-99.99,,2013-05-06 17:52:00,
2013-05-06 13:02:00,66.0,-99.9,29.99,SW,236,12.0,21.0,-999,-99.99,,,-99.99,,2013-05-06 18:02:00,
2013-05-06 13:12:00,67.0,-99.9,29.98,North,-999,-999.0,-999.0,-999,-99.99,,,-99.99,,2013-05-06 18:12:00,
2013-05-06 13:22:00,67.0,-99.9,29.98,SW,233,14.0,19.0,-999,-99.99,,,-99.99,,2013-05-06 18:22:00,
2013-05-06 13:32:00,67.0,-99.9,29.98,SW,228,14.0,20.0,-999,-99.99,,,-99.99,,2013-05-06 18:32:00,
2013-05-06 13:43:00,67.0,-99.9,29.97,North,-999,-999.0,-999.0,-999,-99.99,,,-99.99,,2013-05-06 18:43:00,
2013-05-06 13:52:00,67.0,-99.9,29.97,SW,225,15.0,19.0,-999,-99.99,,,-99.99,,2013-05-06 18:52:00,
2013-05-06 14:01:00,67.0,-99.9,29.97,SW,223,13.0,19.0,-999,-99.99,,,-99.99,,2013-05-06 19:01:00,
2013-05-06 14:11:00,67.0,-99.9,29.96,SW,232,17.0,23.0,-999,-99.99,,,-99.99,,2013-05-06 19:11:00,
2013-05-06 14:22:00,67.0,-99.9,29.96,SW,228,16.0,23.0,-999,-99.99,,,-99.99,,2013-05-06 19:22:00,
2013-05-06 14:32:00,68.0,-99.9,29.96,SW,231,15.0,23.0,-999,-99.99,,,-99.99,,2013-05-06 19:32:00,
2013-05-06 14:42:00,68.0,-99.9,29.96,North,-999,-999.0,-999.0,-999,-99.99,,,-99.99,,2013-05-06 19:42:00,
2013-05-06 14:52:00,68.0,-99.9,29.95,North,-999,-999.0,-999.0,-999,-99.99,,,-99.99,,2013-05-06 19:52:00,
2013-05-06 15:02:00,68.0,-99.9,29.95,SW,233,14.0,20.0,-999,-99.99,,,-99.99,,2013-05-06 20:02:00,
2013-05-06 15:11:00,68.0,-99.9,29.95,WSW,237,14.0,21.0,-999,-99.99,,,-99.99,,2013-05-06 20:11:00,
2013-05-06 15:22:00,70.0,-99.9,29.94,WSW,246,15.0,24.0,-999,-99.99,,,-99.99,,2013-05-06 20:22:00,
2013-05-06 15:32:00,69.0,-99.9,29.94,WSW,239,17.0,27.0,-999,-99.99,,,-99.99,,2013-05-06 20:32:00,
2013-05-06 15:42:00,68.0,-99.9,29.93,North,-999,-999.0,-999.0,-999,-99.99,,,-99.99,,2013-05-06 20:42:00,
2013-05-06 15:52:00,70.0,-99.9,29.93,WSW,244,16.0,24.0,-999,-99.99,,,-99.99,,2013-05-06 20:52:00,
2013-05-06 16:01:00,69.0,-99.9,29.93,WSW,240,16.0,25.0,-999,-99.99,,,-99.99,,2013-05-06 21:01:00,
2013-05-06 16:11:00,70.0,-99.9,29.92,WSW,243,14.0,24.0,-999,-99.99,,,-99.99,,2013-05-06 21:11:00,
2013-05-06 16:22:00,69.0,-99.9,29.92,North,-999,-999.0,-999.0,-999,-99.99,,,-99.99,,2013-05-06 21:22:00,
2013-05-06 16:33:00,70.0,-99.9,29.92,WSW,242,13.0,22.0,-999,-99.99,,,-99.99,,2013-05-06 21:33:00,
2013-05-06 16:43:00,69.0,-99.9,29.92,WSW,245,14.0,26.0,-999,-99.99,,,-99.99,,2013-05-06 21:43:00,
2013-05-06 16:53:00,69.0,-99.9,29.92,WSW,241,18.0,28.0,-999,-99.99,,,-99.99,,2013-05-06 21:53:00,
2013-05-06 17:03:00,69.0,-99.9,29.92,WSW,242,13.0,19.0,-999,-99.99,,,-99.99,,2013-05-06 22:03:00,
2013-05-06 17:12:00,69.0,-99.9,29.91,North,-999,-999.0,-999.0,-999,-99.99,,,-99.99,,2013-05-06 22:12:00,
2013-05-06 17:22:00,69.0,-99.9,29.92,WSW,241,15.0,25.0,-999,-99.99,,,-99.99,,2013-05-06 22:22:00,
2013-05-06 17:33:00,69.0,-99.9,29.92,SW,234,12.0,19.0,-999,-99.99,,,-99.99,,2013-05-06 22:33:00,
2013-05-06 17:45:00,69.0,-99.9,29.91,WSW,245,15.0,21.0,-999,-99.99,,,-99.99,,2013-05-06 22:45:00,
2013-05-06 17:53:00,69.0,-99.9,29.91,WSW,249,16.0,22.0,-999,-99.99,,,-99.99,,2013-05-06 22:53:00,
2013-05-06 18:03:00,69.0,-99.9,29.91,North,-999,-999.0,-999.0,-999,-99.99,,,-99.99,,2013-05-06 23:03:00,
2013-05-06 18:12:00,69.0,-99.9,29.91,North,-999,-999.0,-999.0,-999,-99.99,,,-99.99,,2013-05-06 23:12:00,
2013-05-06 18:22:00,69.0,-99.9,29.92,North,-999,-999.0,-999.0,-999,-99.99,,,-99.99,,2013-05-06 23:22:00,
2013-05-06 18:32:00,69.0,-99.9,29.92,WSW,248,14.0,21.0,-999,-99.99,,,-99.99,,2013-05-06 23:32:00,
2013-05-06 18:42:00,69.0,-99.9,29.92,North,-999,-999.0,-999.0,-999,-99.99,,,-99.99,,2013-05-06 23:42:00,
2013-05-06 18:52:00,69.0,-99.9,29.92,North,-999,-999.0,-999.0,-999,-99.99,,,-99.99,,2013-05-06 23:52:00,
2013-05-06 19:01:00,69.0,-99.9,29.91,WSW,254,12.0,21.0,-999,-99.99,,,-99.99,,2013-05-07 00:01:00,
2013-05-06 19:12:00,69.0,-99.9,29.92,WSW,248,13.0,19.0,-999,-99.99,,,-99.99,,2013-05-07 00:12:00,
2013-05-06 19:22:00,69.0,-99.9,29.92,North,-999,-999.0,-999.0,-999,-99.99,,,-99.99,,2013-05-07 00:22:00,
2013-05-06 19:32:00,69.0,-99.9,29.92,WSW,251,12.0,21.0,-999,-99.99,,,-99.99,,2013-05-07 00:32:00,
2013-05-06 19:42:00,69.0,-99.9,29.92,WSW,252,11.0,19.0,-999,-99.99,,,-99.99,,2013-05-07 00:42:00,
2013-05-06 19:52:00,69.0,-99.9,29.92,North,-999,-999.0,-999.0,-999,-99.99,,,-99.99,,2013-05-07 00:52:00,
2013-05-06 20:01:00,69.0,-99.9,29.93,WSW,258,10.0,15.0,-999,-99.99,,,-99.99,,2013-05-07 01:01:00,
2013-05-06 20:11:00,69.0,-99.9,29.93,North,-999,-999.0,-999.0,-999,-99.99,,,-99.99,,2013-05-07 01:11:00,
2013-05-06 20:21:00,69.0,-99.9,29.93,West,272,11.0,15.0,-999,-99.99,,,-99.99,,2013-05-07 01:21:00,
2013-05-06 20:32:00,69.0,-99.9,29.93,West,271,10.0,15.0,-999,-99.99,,,-99.99,,2013-05-07 01:32:00,
2013-05-06 20:42:00,68.0,-99.9,29.93,West,275,7.0,10.0,-999,-99.99,,,-99.99,,2013-05-07 01:42:00,
2013-05-06 20:53:00,68.0,-99.9,29.94,North,-999,-999.0,-999.0,-999,-99.99,,,-99.99,,2013-05-07 01:53:00,
2013-05-06 21:02:00,68.0,-99.9,29.94,West,278,6.0,9.0,-999,-99.99,,,-99.99,,2013-05-07 02:02:00,
2013-05-06 21:11:00,67.0,-99.9,29.94,West,280,6.0,9.0,-999,-99.99,,,-99.99,,2013-05-07 02:11:00,
2013-05-06 21:22:00,68.0,-99.9,29.95,North,-999,-999.0,-999.0,-999,-99.99,,,-99.99,,2013-05-07 02:22:00,
2013-05-06 21:32:00,67.0,-99.9,29.95,West,273,7.0,9.0,-999,-99.99,,,-99.99,,2013-05-07 02:32:00,
2013-05-06 21:42:00,67.0,-99.9,29.95,West,273,8.0,11.0,-999,-99.99,,,-99.99,,2013-05-07 02:42:00,
2013-05-06 21:52:00,66.0,-99.9,29.95,North,-999,-999.0,-999.0,-999,-99.99,,,-99.99,,2013-05-07 02:52:00,
2013-05-06 22:02:00,66.0,-99.9,29.96,NW,313,8.0,10.0,-999,-99.99,,,-99.99,,2013-05-07 03:02:00,
2013-05-06 22:12:00,66.0,-99.9,29.97,NNW,344,7.0,10.0,-999,-99.99,,,-99.99,,2013-05-07 03:12:00,
2013-05-06 22:22:00,65.0,-99.9,29.98,NNW,337,8.0,11.0,-999,-99.99,,,-99.99,,2013-05-07 03:22:00,
2013-05-06 22:33:00,65.0,-99.9,29.98,NNW,348,7.0,9.0,-999,-99.99,,,-99.99,,2013-05-07 03:33:00,
2013-05-06 22:43:00,65.0,-99.9,29.98,North,349,4.0,5.0,-999,-99.99,,,-99.99,,2013-05-07 03:43:00,
2013-05-06 22:53:00,64.0,-99.9,29.98,North,350,4.0,5.0,-999,-99.99,,,-99.99,,2013-05-07 03:53:00,
2013-05-06 23:03:00,64.0,-99.9,29.98,NNW,345,4.0,5.0,-999,-99.99,,,-99.99,,2013-05-07 04:03:00,
2013-05-06 23:12:00,65.0,-99.9,29.98,North,3,4.0,4.0,-999,-99.99,,,-99.99,,2013-05-07 04:12:00,
2013-05-06 23:23:00,64.0,-99.9,29.97,North,-999,-999.0,-999.0,-999,-99.99,,,-99.99,,2013-05-07 04:23:00,
2013-05-06 23:33:00,64.0,-99.9,29.97,NNW,333,3.0,4.0,-999,-99.99,,,-99.99,,2013-05-07 04:33:00,
2013-05-06 23:42:00,65.0,-99.9,29.97,NNW,330,2.0,3.0,-999,-99.99,,,-99.99,,2013-05-07 04:42:00,
2013-05-06 23:53:00,65.0,-99.9,29.97,NNW,336,3.0,4.0,-999,-99.99,,,-99.99,,2013-05-07 04:53:00,